User: anonymous   Login
Location: Clyde
(45.1830°S, 169.3170°E)
Time: 12:30:20
(UTC+13:00)
Language:

Cosmos 2333 Rocket - Orbit

View from above orbital plane
View from above orbital plane
View from above satellite
View from above satellite

Ground track
Ground track

The orbit data is extracted from the following two-line orbital elements,

1 24298U 96051B   19295.43259477  .00000096  00000-0  78344-4 0  9998
2 24298  70.8331  54.4626 0015533 336.4718  23.5689 14.12439788192861
Epoch (UTC): 22 October 2019 10:22:56
Eccentricity: 0.0015533
inclination: 70.8331°
perigee height: 840 km
apogee height: 862 km
right ascension of ascending node: 54.4626°
argument of perigee: 336.4718°
revolutions per day: 14.12439788
mean anomaly at epoch: 23.5689°
orbit number at epoch: 19286

The dashed part of the orbit path shows where the satellite is in the earth's shadow,  

DLR